Time,TemperatureF,DewpointF,PressureIn,WindDirection,WindDirectionDegrees,WindSpeedMPH,WindSpeedGustMPH,Humidity,HourlyPrecipIn,Conditions,Clouds,dailyrainin,SoftwareType,DateUTC
2013-05-05 00:01:00,38.2,38.2,30.32,NNE,18,0.0,0.0,100,0.00,n/a,n/a,-99.99,Henriksen +1-Wire,2013-05-05 04:01:00,
2013-05-05 00:02:00,38.3,38.3,30.32,NNE,16,1.1,2.4,100,0.00,n/a,n/a,-99.99,Henriksen +1-Wire,2013-05-05 04:02:00,
2013-05-05 00:03:00,38.3,38.3,30.32,NNE,17,1.6,2.4,100,0.00,n/a,n/a,-99.99,Henriksen +1-Wire,2013-05-05 04:03:00,
2013-05-05 00:04:00,38.2,38.2,30.32,NNE,19,1.8,2.4,100,0.00,n/a,n/a,-99.99,Henriksen +1-Wire,2013-05-05 04:04:00,
2013-05-05 00:05:00,38.2,38.2,30.32,NNE,20,1.8,2.4,100,0.00,n/a,n/a,-99.99,Henriksen +1-Wire,2013-05-05 04:05:00,
2013-05-05 00:10:00,38.2,38.2,30.32,NNE,30,2.0,3.2,100,0.00,n/a,n/a,-99.99,Henriksen +1-Wire,2013-05-05 04:10:00,
2013-05-05 00:15:00,38.2,38.2,30.32,NNE,23,1.9,3.2,100,0.00,n/a,n/a,-99.99,Henriksen +1-Wire,2013-05-05 04:15:00,
2013-05-05 00:20:00,38.2,38.2,30.32,North,10,1.1,2.5,100,0.00,n/a,n/a,-99.99,Henriksen +1-Wire,2013-05-05 04:20:00,
2013-05-05 00:25:00,38.2,38.2,30.32,North,2,1.9,2.4,100,0.00,n/a,n/a,-99.99,Henriksen +1-Wire,2013-05-05 04:25:00,
2013-05-05 00:30:00,38.3,38.3,30.32,NNE,14,1.8,2.4,100,0.00,n/a,n/a,-99.99,Henriksen +1-Wire,2013-05-05 04:30:00,
2013-05-05 00:35:00,38.2,38.2,30.32,NNE,19,1.5,2.4,100,0.00,n/a,n/a,-99.99,Henriksen +1-Wire,2013-05-05 04:35:00,
2013-05-05 00:40:00,38.1,38.1,30.32,North,9,1.4,2.4,100,0.00,n/a,n/a,-99.99,Henriksen +1-Wire,2013-05-05 04:40:00,
2013-05-05 00:45:00,38.1,38.1,30.31,NNE,15,1.6,2.4,100,0.00,n/a,n/a,-99.99,Henriksen +1-Wire,2013-05-05 04:45:00,
2013-05-05 00:50:00,37.8,37.8,30.31,NNE,26,2.0,2.4,100,0.00,n/a,n/a,-99.99,Henriksen +1-Wire,2013-05-05 04:50:00,
2013-05-05 00:55:00,37.7,37.7,30.31,NNE,25,1.8,2.5,100,0.00,n/a,n/a,-99.99,Henriksen +1-Wire,2013-05-05 04:55:00,
2013-05-05 01:00:00,37.5,37.5,30.31,NNE,28,1.8,2.5,100,0.00,n/a,n/a,-99.99,Henriksen +1-Wire,2013-05-05 05:00:00,
2013-05-05 01:05:00,37.4,37.4,30.31,NNE,17,1.7,2.5,100,0.00,n/a,n/a,-99.99,Henriksen +1-Wire,2013-05-05 05:05:00,
2013-05-05 01:11:00,37.4,37.4,30.30,NNE,15,1.8,2.5,100,0.00,n/a,n/a,-99.99,Henriksen +1-Wire,2013-05-05 05:11:00,
2013-05-05 01:16:00,37.4,37.4,30.30,North,10,1.9,2.4,100,0.00,n/a,n/a,-99.99,Henriksen +1-Wire,2013-05-05 05:16:00,
2013-05-05 01:21:00,37.4,37.4,30.30,North,5,2.2,2.5,100,0.00,n/a,n/a,-99.99,Henriksen +1-Wire,2013-05-05 05:21:00,
2013-05-05 01:27:00,37.6,37.6,30.30,North,352,1.7,2.8,100,0.00,n/a,n/a,-99.99,Henriksen +1-Wire,2013-05-05 05:27:00,
2013-05-05 01:32:00,37.7,37.7,30.30,North,360,1.9,2.5,100,0.00,n/a,n/a,-99.99,Henriksen +1-Wire,2013-05-05 05:32:00,
2013-05-05 01:37:00,37.7,37.7,30.30,North,359,2.3,3.2,100,0.00,n/a,n/a,-99.99,Henriksen +1-Wire,2013-05-05 05:37:00,
2013-05-05 01:42:00,37.8,37.8,30.30,North,358,2.1,3.2,100,0.00,n/a,n/a,-99.99,Henriksen +1-Wire,2013-05-05 05:42:00,
2013-05-05 01:47:00,37.9,37.9,30.30,North,354,2.2,3.2,100,0.00,n/a,n/a,-99.99,Henriksen +1-Wire,2013-05-05 05:47:00,
2013-05-05 01:52:00,37.9,37.9,30.30,NNW,338,1.7,3.2,100,0.00,n/a,n/a,-99.99,Henriksen +1-Wire,2013-05-05 05:52:00,
2013-05-05 01:57:00,37.8,37.8,30.30,NNW,345,2.1,3.2,100,0.00,n/a,n/a,-99.99,Henriksen +1-Wire,2013-05-05 05:57:00,
2013-05-05 02:02:00,37.8,37.8,30.30,North,358,2.2,3.3,100,0.00,n/a,n/a,-99.99,Henriksen +1-Wire,2013-05-05 06:02:00,
2013-05-05 02:08:00,37.8,37.8,30.29,North,359,2.3,3.3,100,0.00,n/a,n/a,-99.99,Henriksen +1-Wire,2013-05-05 06:08:00,
2013-05-05 02:13:00,37.7,37.7,30.29,North,357,1.6,3.2,100,0.00,n/a,n/a,-99.99,Henriksen +1-Wire,2013-05-05 06:13:00,
2013-05-05 02:18:00,37.6,37.6,30.29,North,3,1.5,2.5,100,0.00,n/a,n/a,-99.99,Henriksen +1-Wire,2013-05-05 06:18:00,
2013-05-05 02:23:00,37.5,37.5,30.29,North,11,1.5,2.4,100,0.00,n/a,n/a,-99.99,Henriksen +1-Wire,2013-05-05 06:23:00,
2013-05-05 02:28:00,37.3,37.3,30.29,North,3,1.4,2.4,100,0.00,n/a,n/a,-99.99,Henriksen +1-Wire,2013-05-05 06:28:00,
2013-05-05 02:33:00,37.3,37.3,30.29,NNW,345,0.8,2.4,100,0.00,n/a,n/a,-99.99,Henriksen +1-Wire,2013-05-05 06:33:00,
2013-05-05 02:38:00,37.2,37.2,30.29,NNW,340,1.9,2.9,100,0.00,n/a,n/a,-99.99,Henriksen +1-Wire,2013-05-05 06:38:00,
2013-05-05 02:43:00,37.1,37.1,30.29,NNW,344,1.2,2.9,100,0.00,n/a,n/a,-99.99,Henriksen +1-Wire,2013-05-05 06:43:00,
2013-05-05 02:48:00,36.9,36.9,30.29,North,352,1.0,2.4,100,0.00,n/a,n/a,-99.99,Henriksen +1-Wire,2013-05-05 06:48:00,
2013-05-05 02:53:00,36.8,36.8,30.29,North,11,1.1,1.7,100,0.00,n/a,n/a,-99.99,Henriksen +1-Wire,2013-05-05 06:53:00,
2013-05-05 02:58:00,36.6,36.6,30.29,North,10,0.7,1.6,100,0.00,n/a,n/a,-99.99,Henriksen +1-Wire,2013-05-05 06:58:00,
2013-05-05 03:04:00,36.5,36.5,30.29,NNW,348,1.1,1.6,100,0.00,n/a,n/a,-99.99,Henriksen +1-Wire,2013-05-05 07:04:00,
2013-05-05 03:09:00,36.5,36.5,30.29,NNW,346,2.0,3.1,100,0.00,n/a,n/a,-99.99,Henriksen +1-Wire,2013-05-05 07:09:00,
2013-05-05 03:15:00,36.5,36.5,30.29,North,1,1.1,3.1,100,0.00,n/a,n/a,-99.99,Henriksen +1-Wire,2013-05-05 07:15:00,
2013-05-05 03:20:00,36.4,36.4,30.29,North,8,1.5,2.4,100,0.00,n/a,n/a,-99.99,Henriksen +1-Wire,2013-05-05 07:20:00,
2013-05-05 03:25:00,36.4,36.4,30.29,North,2,0.0,2.4,100,0.00,n/a,n/a,-99.99,Henriksen +1-Wire,2013-05-05 07:25:00,
2013-05-05 03:30:00,36.3,36.3,30.29,NNE,25,1.2,2.4,100,0.00,n/a,n/a,-99.99,Henriksen +1-Wire,2013-05-05 07:30:00,
2013-05-05 03:35:00,36.1,36.1,30.29,NNE,20,1.2,2.4,100,0.00,n/a,n/a,-99.99,Henriksen +1-Wire,2013-05-05 07:35:00,
2013-05-05 03:40:00,36.1,36.1,30.29,North,8,1.8,2.4,100,0.00,n/a,n/a,-99.99,Henriksen +1-Wire,2013-05-05 07:40:00,
2013-05-05 03:45:00,36.1,36.1,30.29,North,4,1.4,2.4,100,0.00,n/a,n/a,-99.99,Henriksen +1-Wire,2013-05-05 07:45:00,
2013-05-05 03:50:00,36.1,36.1,30.29,North,8,0.8,2.4,100,0.00,n/a,n/a,-99.99,Henriksen +1-Wire,2013-05-05 07:50:00,
2013-05-05 03:55:00,36.1,36.1,30.29,North,7,0.0,1.6,100,0.00,n/a,n/a,-99.99,Henriksen +1-Wire,2013-05-05 07:55:00,
2013-05-05 04:01:00,36.0,36.0,30.28,North,357,1.1,1.6,100,0.00,n/a,n/a,-99.99,Henriksen +1-Wire,2013-05-05 08:01:00,
2013-05-05 04:06:00,36.0,36.0,30.28,North,3,1.2,1.7,100,0.00,n/a,n/a,-99.99,Henriksen +1-Wire,2013-05-05 08:06:00,
2013-05-05 04:12:00,36.0,36.0,30.28,North,358,1.3,2.4,100,0.00,n/a,n/a,-99.99,Henriksen +1-Wire,2013-05-05 08:12:00,
2013-05-05 04:17:00,35.9,35.9,30.28,North,357,1.4,2.4,100,0.00,n/a,n/a,-99.99,Henriksen +1-Wire,2013-05-05 08:17:00,
2013-05-05 04:22:00,35.9,35.9,30.28,North,355,1.8,2.4,100,0.00,n/a,n/a,-99.99,Henriksen +1-Wire,2013-05-05 08:22:00,
2013-05-05 04:27:00,35.8,35.8,30.28,North,354,1.6,2.4,100,0.00,n/a,n/a,-99.99,Henriksen +1-Wire,2013-05-05 08:27:00,
2013-05-05 04:32:00,35.7,35.7,30.28,NNE,25,1.6,2.5,100,0.00,n/a,n/a,-99.99,Henriksen +1-Wire,2013-05-05 08:32:00,
2013-05-05 04:38:00,35.6,35.6,30.28,NNE,30,1.6,2.5,100,0.00,n/a,n/a,-99.99,Henriksen +1-Wire,2013-05-05 08:38:00,
2013-05-05 04:43:00,35.5,35.5,30.28,NNE,30,1.0,2.4,100,0.00,n/a,n/a,-99.99,Henriksen +1-Wire,2013-05-05 08:43:00,
2013-05-05 04:48:00,35.4,35.4,30.28,NNE,23,1.4,2.5,100,0.00,n/a,n/a,-99.99,Henriksen +1-Wire,2013-05-05 08:48:00,
2013-05-05 04:54:00,35.4,35.4,30.27,North,5,1.5,2.5,100,0.00,n/a,n/a,-99.99,Henriksen +1-Wire,2013-05-05 08:54:00,
2013-05-05 04:59:00,35.3,35.3,30.27,North,8,1.2,2.5,100,0.00,n/a,n/a,-99.99,Henriksen +1-Wire,2013-05-05 08:59:00,
2013-05-05 05:05:00,35.2,35.2,30.27,NNE,22,0.0,2.4,100,0.00,n/a,n/a,-99.99,Henriksen +1-Wire,2013-05-05 09:05:00,
2013-05-05 05:10:00,35.1,35.1,30.27,NNE,32,1.4,2.4,100,0.00,n/a,n/a,-99.99,Henriksen +1-Wire,2013-05-05 09:10:00,
2013-05-05 05:15:00,35.1,35.1,30.27,NNE,25,1.3,2.4,100,0.00,n/a,n/a,-99.99,Henriksen +1-Wire,2013-05-05 09:15:00,
2013-05-05 05:21:00,35.0,35.0,30.27,NNE,16,0.8,2.4,100,0.00,n/a,n/a,-99.99,Henriksen +1-Wire,2013-05-05 09:21:00,
2013-05-05 05:26:00,35.0,35.0,30.27,NNE,18,0.1,2.0,100,0.00,n/a,n/a,-99.99,Henriksen +1-Wire,2013-05-05 09:26:00,
2013-05-05 05:31:00,34.9,34.9,30.27,NNE,29,0.9,2.0,100,0.00,n/a,n/a,-99.99,Henriksen +1-Wire,2013-05-05 09:31:00,
2013-05-05 05:36:00,34.9,34.9,30.27,NNE,28,0.8,2.4,100,0.00,n/a,n/a,-99.99,Henriksen +1-Wire,2013-05-05 09:36:00,
2013-05-05 05:41:00,34.9,34.9,30.27,NNE,31,0.0,2.4,100,0.00,n/a,n/a,-99.99,Henriksen +1-Wire,2013-05-05 09:41:00,
2013-05-05 05:47:00,35.0,35.0,30.28,NNE,19,0.7,1.7,100,0.00,n/a,n/a,-99.99,Henriksen +1-Wire,2013-05-05 09:47:00,
2013-05-05 05:52:00,35.0,35.0,30.28,NE,41,1.3,2.4,100,0.00,n/a,n/a,-99.99,Henriksen +1-Wire,2013-05-05 09:52:00,
2013-05-05 05:57:00,35.0,35.0,30.28,NE,38,0.1,2.4,100,0.00,n/a,n/a,-99.99,Henriksen +1-Wire,2013-05-05 09:57:00,
2013-05-05 06:03:00,35.0,35.0,30.28,NNE,23,0.8,2.4,100,0.00,n/a,n/a,-99.99,Henriksen +1-Wire,2013-05-05 10:03:00,
2013-05-05 06:08:00,35.1,35.1,30.28,NNE,24,1.2,2.4,100,0.00,n/a,n/a,-99.99,Henriksen +1-Wire,2013-05-05 10:08:00,
2013-05-05 06:14:00,35.1,35.1,30.28,NE,42,0.1,2.4,100,0.00,n/a,n/a,-99.99,Henriksen +1-Wire,2013-05-05 10:14:00,
2013-05-05 06:19:00,35.2,35.2,30.29,NNE,30,0.4,1.6,100,0.00,n/a,n/a,-99.99,Henriksen +1-Wire,2013-05-05 10:19:00,
2013-05-05 06:25:00,35.4,35.4,30.29,North,2,0.2,2.4,100,0.00,n/a,n/a,-99.99,Henriksen +1-Wire,2013-05-05 10:25:00,
2013-05-05 06:31:00,35.6,35.6,30.29,North,7,0.3,1.7,100,0.00,n/a,n/a,-99.99,Henriksen +1-Wire,2013-05-05 10:31:00,
2013-05-05 06:36:00,35.9,35.9,30.29,NNE,17,0.1,1.6,100,0.00,n/a,n/a,-99.99,Henriksen +1-Wire,2013-05-05 10:36:00,
2013-05-05 06:41:00,36.2,36.2,30.29,NE,34,0.0,1.0,100,0.00,n/a,n/a,-99.99,Henriksen +1-Wire,2013-05-05 10:41:00,
2013-05-05 06:46:00,36.4,36.4,30.29,North,358,0.0,0.8,100,0.00,n/a,n/a,-99.99,Henriksen +1-Wire,2013-05-05 10:46:00,
2013-05-05 06:51:00,36.6,36.6,30.29,North,355,0.1,1.6,100,0.00,n/a,n/a,-99.99,Henriksen +1-Wire,2013-05-05 10:51:00,
2013-05-05 06:56:00,36.7,36.7,30.29,NNW,347,0.0,1.6,100,0.00,n/a,n/a,-99.99,Henriksen +1-Wire,2013-05-05 10:56:00,
2013-05-05 07:01:00,37.0,37.0,30.29,North,360,0.0,0.4,100,0.00,n/a,n/a,-99.99,Henriksen +1-Wire,2013-05-05 11:01:00,
2013-05-05 07:06:00,37.3,37.3,30.29,NNE,25,0.0,0.4,100,0.00,n/a,n/a,-99.99,Henriksen +1-Wire,2013-05-05 11:06:00,
2013-05-05 07:11:00,37.8,37.8,30.29,North,5,0.0,0.0,100,0.00,n/a,n/a,-99.99,Henriksen +1-Wire,2013-05-05 11:11:00,
2013-05-05 07:16:00,38.3,38.3,30.29,NNW,344,0.6,2.4,100,0.00,n/a,n/a,-99.99,Henriksen +1-Wire,2013-05-05 11:16:00,
2013-05-05 07:21:00,38.8,38.8,30.30,North,351,1.2,2.4,100,0.00,n/a,n/a,-99.99,Henriksen +1-Wire,2013-05-05 11:21:00,
2013-05-05 07:27:00,39.3,39.2,30.30,NNW,337,1.1,2.4,99,0.00,n/a,n/a,-99.99,Henriksen +1-Wire,2013-05-05 11:27:00,
2013-05-05 07:33:00,39.8,39.5,30.30,NNW,333,2.1,3.1,98,0.00,n/a,n/a,-99.99,Henriksen +1-Wire,2013-05-05 11:33:00,
2013-05-05 07:38:00,40.3,39.6,30.30,NNW,341,1.3,3.1,97,0.00,n/a,n/a,-99.99,Henriksen +1-Wire,2013-05-05 11:38:00,
2013-05-05 07:43:00,41.0,39.8,30.30,North,350,0.4,2.4,95,0.00,n/a,n/a,-99.99,Henriksen +1-Wire,2013-05-05 11:43:00,
2013-05-05 07:49:00,41.7,39.9,30.30,NNW,334,2.0,3.2,93,0.00,n/a,n/a,-99.99,Henriksen +1-Wire,2013-05-05 11:49:00,
2013-05-05 07:55:00,42.1,39.7,30.30,NNW,339,1.6,3.2,91,0.00,n/a,n/a,-99.99,Henriksen +1-Wire,2013-05-05 11:55:00,
2013-05-05 08:00:00,42.4,39.4,30.30,NNW,332,1.7,3.2,88,0.00,n/a,n/a,-99.99,Henriksen +1-Wire,2013-05-05 12:00:00,
2013-05-05 08:05:00,42.7,39.2,30.30,NNW,345,1.4,2.6,87,0.00,n/a,n/a,-99.99,Henriksen +1-Wire,2013-05-05 12:05:00,
2013-05-05 08:10:00,43.1,39.2,30.30,NW,318,0.9,3.2,85,0.00,n/a,n/a,-99.99,Henriksen +1-Wire,2013-05-05 12:10:00,
2013-05-05 08:15:00,43.8,39.8,30.30,North,6,2.0,3.2,85,0.00,n/a,n/a,-99.99,Henriksen +1-Wire,2013-05-05 12:15:00,
2013-05-05 08:20:00,44.7,40.4,30.30,NW,318,0.8,3.2,84,0.00,n/a,n/a,-99.99,Henriksen +1-Wire,2013-05-05 12:20:00,
2013-05-05 08:25:00,45.3,40.7,30.30,NW,325,1.6,3.2,83,0.00,n/a,n/a,-99.99,Henriksen +1-Wire,2013-05-05 12:25:00,
2013-05-05 08:30:00,46.0,40.5,30.30,WNW,294,1.4,3.2,81,0.00,n/a,n/a,-99.99,Henriksen +1-Wire,2013-05-05 12:30:00,
2013-05-05 08:35:00,46.9,40.6,30.30,NE,48,1.5,3.1,78,0.00,n/a,n/a,-99.99,Henriksen +1-Wire,2013-05-05 12:35:00,
2013-05-05 08:40:00,47.6,40.8,30.30,ENE,57,1.3,2.5,77,0.00,n/a,n/a,-99.99,Henriksen +1-Wire,2013-05-05 12:40:00,
2013-05-05 08:45:00,48.2,40.7,30.30,NE,54,0.7,2.5,75,0.00,n/a,n/a,-99.99,Henriksen +1-Wire,2013-05-05 12:45:00,
2013-05-05 08:50:00,48.8,40.4,30.30,East,95,0.9,2.5,72,0.00,n/a,n/a,-99.99,Henriksen +1-Wire,2013-05-05 12:50:00,
2013-05-05 08:55:00,49.3,40.1,30.30,East,90,0.7,2.4,70,0.00,n/a,n/a,-99.99,Henriksen +1-Wire,2013-05-05 12:55:00,
2013-05-05 09:00:00,49.7,40.3,30.30,SW,218,1.9,3.2,69,0.00,n/a,n/a,-99.99,Henriksen +1-Wire,2013-05-05 13:00:00,
2013-05-05 09:05:00,50.2,40.4,30.30,SW,225,3.0,4.1,68,0.00,n/a,n/a,-99.99,Henriksen +1-Wire,2013-05-05 13:05:00,
2013-05-05 09:10:00,50.4,40.0,30.30,South,177,2.5,4.1,67,0.00,n/a,n/a,-99.99,Henriksen +1-Wire,2013-05-05 13:10:00,
2013-05-05 09:15:00,51.1,40.2,30.30,South,189,2.1,4.7,65,0.00,n/a,n/a,-99.99,Henriksen +1-Wire,2013-05-05 13:15:00,
2013-05-05 09:20:00,51.6,40.2,30.30,SW,236,3.1,4.9,64,0.00,n/a,n/a,-99.99,Henriksen +1-Wire,2013-05-05 13:20:00,
2013-05-05 09:26:00,51.9,40.0,30.30,SSW,205,3.1,5.5,63,0.00,n/a,n/a,-99.99,Henriksen +1-Wire,2013-05-05 13:26:00,
2013-05-05 09:31:00,51.9,39.7,30.30,SSW,200,4.3,6.1,62,0.00,n/a,n/a,-99.99,Henriksen +1-Wire,2013-05-05 13:31:00,
2013-05-05 09:37:00,51.6,39.5,30.30,SSW,195,3.7,6.1,63,0.00,n/a,n/a,-99.99,Henriksen +1-Wire,2013-05-05 13:37:00,
2013-05-05 09:42:00,51.3,39.6,30.30,South,191,4.4,6.4,63,0.00,n/a,n/a,-99.99,Henriksen +1-Wire,2013-05-05 13:42:00,
2013-05-05 09:47:00,51.1,40.0,30.30,South,189,4.1,7.1,65,0.00,n/a,n/a,-99.99,Henriksen +1-Wire,2013-05-05 13:47:00,
2013-05-05 09:52:00,51.1,40.4,30.30,South,186,5.1,7.1,66,0.00,n/a,n/a,-99.99,Henriksen +1-Wire,2013-05-05 13:52:00,
2013-05-05 09:57:00,50.9,40.7,30.30,South,186,3.3,8.7,67,0.00,n/a,n/a,-99.99,Henriksen +1-Wire,2013-05-05 13:57:00,
2013-05-05 10:02:00,50.6,40.7,30.30,SSW,193,4.0,8.7,68,0.00,n/a,n/a,-99.99,Henriksen +1-Wire,2013-05-05 14:02:00,
2013-05-05 10:08:00,50.6,41.1,30.30,SSW,193,3.4,7.5,69,0.00,n/a,n/a,-99.99,Henriksen +1-Wire,2013-05-05 14:08:00,
2013-05-05 10:13:00,50.7,41.3,30.30,South,186,4.4,7.5,70,0.00,n/a,n/a,-99.99,Henriksen +1-Wire,2013-05-05 14:13:00,
2013-05-05 10:18:00,50.8,41.5,30.30,SSW,195,4.2,7.9,70,0.00,n/a,n/a,-99.99,Henriksen +1-Wire,2013-05-05 14:18:00,
2013-05-05 10:23:00,50.8,41.6,30.30,SW,218,3.9,7.9,70,0.00,n/a,n/a,-99.99,Henriksen +1-Wire,2013-05-05 14:23:00,
2013-05-05 10:28:00,50.9,41.6,30.30,SSW,202,3.3,6.4,70,0.00,n/a,n/a,-99.99,Henriksen +1-Wire,2013-05-05 14:28:00,
2013-05-05 10:33:00,51.1,41.9,30.30,SSW,199,3.7,6.4,70,0.00,n/a,n/a,-99.99,Henriksen +1-Wire,2013-05-05 14:33:00,
2013-05-05 10:38:00,51.2,42.0,30.30,SSW,202,3.4,8.7,70,0.00,n/a,n/a,-99.99,Henriksen +1-Wire,2013-05-05 14:38:00,
2013-05-05 10:43:00,51.5,42.1,30.30,South,188,4.8,8.7,70,0.00,n/a,n/a,-99.99,Henriksen +1-Wire,2013-05-05 14:43:00,
2013-05-05 10:48:00,51.9,42.4,30.30,South,188,4.9,8.7,69,0.00,n/a,n/a,-99.99,Henriksen +1-Wire,2013-05-05 14:48:00,
2013-05-05 10:53:00,52.4,42.6,30.30,South,187,4.1,7.9,69,0.00,n/a,n/a,-99.99,Henriksen +1-Wire,2013-05-05 14:53:00,
2013-05-05 10:58:00,52.5,42.6,30.30,SSW,192,5.5,9.5,68,0.00,n/a,n/a,-99.99,Henriksen +1-Wire,2013-05-05 14:58:00,
2013-05-05 11:04:00,52.3,42.3,30.30,SSW,193,6.9,9.7,68,0.00,n/a,n/a,-99.99,Henriksen +1-Wire,2013-05-05 15:04:00,
2013-05-05 11:09:00,52.4,42.5,30.30,South,191,5.5,9.7,68,0.00,n/a,n/a,-99.99,Henriksen +1-Wire,2013-05-05 15:09:00,
2013-05-05 11:15:00,52.7,42.8,30.30,South,183,5.0,8.9,68,0.00,n/a,n/a,-99.99,Henriksen +1-Wire,2013-05-05 15:15:00,
2013-05-05 11:20:00,52.8,42.9,30.30,South,179,6.2,9.4,68,0.00,n/a,n/a,-99.99,Henriksen +1-Wire,2013-05-05 15:20:00,
2013-05-05 11:26:00,52.6,42.8,30.30,South,191,7.2,10.5,68,0.00,n/a,n/a,-99.99,Henriksen +1-Wire,2013-05-05 15:26:00,
2013-05-05 11:31:00,52.7,43.0,30.30,South,184,6.8,10.5,69,0.00,n/a,n/a,-99.99,Henriksen +1-Wire,2013-05-05 15:31:00,
2013-05-05 11:37:00,52.9,43.3,30.30,SSW,193,6.6,10.3,69,0.00,n/a,n/a,-99.99,Henriksen +1-Wire,2013-05-05 15:37:00,
2013-05-05 11:43:00,52.7,43.1,30.30,SSW,194,7.6,11.0,69,0.00,n/a,n/a,-99.99,Henriksen +1-Wire,2013-05-05 15:43:00,
2013-05-05 11:48:00,52.4,43.0,30.30,SSW,197,5.8,11.0,70,0.00,n/a,n/a,-99.99,Henriksen +1-Wire,2013-05-05 15:48:00,
2013-05-05 11:53:00,52.5,43.2,30.29,SSW,193,5.8,10.2,70,0.00,n/a,n/a,-99.99,Henriksen +1-Wire,2013-05-05 15:53:00,
2013-05-05 11:58:00,52.5,43.6,30.29,SSW,194,7.6,10.6,71,0.00,n/a,n/a,-99.99,Henriksen +1-Wire,2013-05-05 15:58:00,
2013-05-05 12:03:00,52.7,43.9,30.29,South,187,7.1,10.6,71,0.00,n/a,n/a,-99.99,Henriksen +1-Wire,2013-05-05 16:03:00,
2013-05-05 12:08:00,52.8,44.0,30.29,SSW,193,7.1,10.5,71,0.00,n/a,n/a,-99.99,Henriksen +1-Wire,2013-05-05 16:08:00,
2013-05-05 12:13:00,52.9,44.1,30.29,SSW,196,7.0,10.5,71,0.00,n/a,n/a,-99.99,Henriksen +1-Wire,2013-05-05 16:13:00,
2013-05-05 12:18:00,52.8,44.2,30.29,SSW,197,6.8,11.3,72,0.00,n/a,n/a,-99.99,Henriksen +1-Wire,2013-05-05 16:18:00,
2013-05-05 12:23:00,52.7,44.4,30.29,SSW,201,7.1,13.4,73,0.00,n/a,n/a,-99.99,Henriksen +1-Wire,2013-05-05 16:23:00,
2013-05-05 12:28:00,52.8,44.7,30.29,SSW,196,7.1,13.4,73,0.00,n/a,n/a,-99.99,Henriksen +1-Wire,2013-05-05 16:28:00,
2013-05-05 12:33:00,53.0,45.2,30.29,SSW,195,5.2,11.1,74,0.00,n/a,n/a,-99.99,Henriksen +1-Wire,2013-05-05 16:33:00,
2013-05-05 12:39:00,53.8,45.8,30.29,SSW,195,5.8,10.2,74,0.00,n/a,n/a,-99.99,Henriksen +1-Wire,2013-05-05 16:39:00,
2013-05-05 12:44:00,54.3,45.9,30.29,SSW,192,5.3,9.5,73,0.00,n/a,n/a,-99.99,Henriksen +1-Wire,2013-05-05 16:44:00,
2013-05-05 12:49:00,54.3,45.7,30.28,SSW,193,6.2,12.6,72,0.00,n/a,n/a,-99.99,Henriksen +1-Wire,2013-05-05 16:49:00,
2013-05-05 12:55:00,54.2,45.4,30.28,SSW,194,6.2,12.6,71,0.00,n/a,n/a,-99.99,Henriksen +1-Wire,2013-05-05 16:55:00,
2013-05-05 13:00:00,54.3,45.5,30.29,SSW,198,7.5,11.8,72,0.00,n/a,n/a,-99.99,Henriksen +1-Wire,2013-05-05 17:00:00,
2013-05-05 13:05:00,54.3,45.7,30.29,SSW,194,5.8,11.8,72,0.00,n/a,n/a,-99.99,Henriksen +1-Wire,2013-05-05 17:05:00,
2013-05-05 13:10:00,54.3,45.6,30.28,South,187,7.3,11.3,72,0.00,n/a,n/a,-99.99,Henriksen +1-Wire,2013-05-05 17:10:00,
2013-05-05 13:15:00,54.3,45.6,30.28,South,190,6.4,11.0,72,0.00,n/a,n/a,-99.99,Henriksen +1-Wire,2013-05-05 17:15:00,
2013-05-05 13:20:00,54.0,45.3,30.28,SSW,195,6.3,12.6,72,0.00,n/a,n/a,-99.99,Henriksen +1-Wire,2013-05-05 17:20:00,
2013-05-05 13:25:00,53.9,45.6,30.28,SSW,196,6.3,14.2,73,0.00,n/a,n/a,-99.99,Henriksen +1-Wire,2013-05-05 17:25:00,
2013-05-05 13:30:00,54.0,45.9,30.28,SSW,196,6.7,14.2,73,0.00,n/a,n/a,-99.99,Henriksen +1-Wire,2013-05-05 17:30:00,
2013-05-05 13:35:00,53.6,45.7,30.28,SSW,194,6.6,13.5,74,0.00,n/a,n/a,-99.99,Henriksen +1-Wire,2013-05-05 17:35:00,
2013-05-05 13:40:00,54.0,46.0,30.28,South,189,7.1,11.2,74,0.00,n/a,n/a,-99.99,Henriksen +1-Wire,2013-05-05 17:40:00,
2013-05-05 13:45:00,53.9,45.8,30.28,SSW,195,8.5,13.4,73,0.00,n/a,n/a,-99.99,Henriksen +1-Wire,2013-05-05 17:45:00,
2013-05-05 13:50:00,53.9,45.8,30.28,South,186,8.8,13.4,73,0.00,n/a,n/a,-99.99,Henriksen +1-Wire,2013-05-05 17:50:00,
2013-05-05 13:55:00,53.6,45.4,30.28,SSW,195,8.7,12.6,73,0.00,n/a,n/a,-99.99,Henriksen +1-Wire,2013-05-05 17:55:00,
2013-05-05 14:00:00,53.5,45.2,30.28,SW,222,5.4,12.1,73,0.00,n/a,n/a,-99.99,Henriksen +1-Wire,2013-05-05 18:00:00,
2013-05-05 14:05:00,53.6,45.2,30.28,SSW,198,8.2,12.6,72,0.00,n/a,n/a,-99.99,Henriksen +1-Wire,2013-05-05 18:05:00,
2013-05-05 14:10:00,53.7,45.3,30.28,SSW,192,5.7,12.6,72,0.00,n/a,n/a,-99.99,Henriksen +1-Wire,2013-05-05 18:10:00,
2013-05-05 14:15:00,53.8,45.4,30.28,SSW,198,7.6,14.2,72,0.00,n/a,n/a,-99.99,Henriksen +1-Wire,2013-05-05 18:15:00,
2013-05-05 14:20:00,54.0,45.4,30.28,South,180,7.5,14.2,72,0.00,n/a,n/a,-99.99,Henriksen +1-Wire,2013-05-05 18:20:00,
2013-05-05 14:25:00,53.8,45.1,30.28,SSW,194,8.4,12.6,72,0.00,n/a,n/a,-99.99,Henriksen +1-Wire,2013-05-05 18:25:00,
2013-05-05 14:30:00,53.9,45.2,30.28,South,182,8.5,12.6,72,0.00,n/a,n/a,-99.99,Henriksen +1-Wire,2013-05-05 18:30:00,
2013-05-05 14:35:00,53.6,45.0,30.28,South,190,7.0,12.6,72,0.00,n/a,n/a,-99.99,Henriksen +1-Wire,2013-05-05 18:35:00,
2013-05-05 14:40:00,53.8,45.4,30.28,SW,216,5.9,11.3,73,0.00,n/a,n/a,-99.99,Henriksen +1-Wire,2013-05-05 18:40:00,
2013-05-05 14:45:00,53.7,45.4,30.28,SSW,208,5.3,9.8,73,0.00,n/a,n/a,-99.99,Henriksen +1-Wire,2013-05-05 18:45:00,
2013-05-05 14:50:00,53.6,45.2,30.28,SW,214,5.7,10.3,72,0.00,n/a,n/a,-99.99,Henriksen +1-Wire,2013-05-05 18:50:00,
2013-05-05 14:55:00,53.9,45.4,30.28,SSW,207,5.5,10.3,72,0.00,n/a,n/a,-99.99,Henriksen +1-Wire,2013-05-05 18:55:00,
2013-05-05 15:00:00,53.7,45.3,30.28,SSW,211,3.9,9.4,72,0.00,n/a,n/a,-99.99,Henriksen +1-Wire,2013-05-05 19:00:00,
2013-05-05 15:05:00,53.7,45.2,30.28,SSW,203,4.9,10.1,72,0.00,n/a,n/a,-99.99,Henriksen +1-Wire,2013-05-05 19:05:00,
2013-05-05 15:10:00,53.9,45.4,30.28,South,185,6.4,10.1,72,0.00,n/a,n/a,-99.99,Henriksen +1-Wire,2013-05-05 19:10:00,
2013-05-05 15:15:00,54.0,45.4,30.27,SSW,207,5.7,10.1,72,0.00,n/a,n/a,-99.99,Henriksen +1-Wire,2013-05-05 19:15:00,
2013-05-05 15:20:00,53.8,45.2,30.27,SSW,207,6.1,10.2,72,0.00,n/a,n/a,-99.99,Henriksen +1-Wire,2013-05-05 19:20:00,
2013-05-05 15:25:00,53.5,44.9,30.27,SW,214,4.6,10.2,72,0.00,n/a,n/a,-99.99,Henriksen +1-Wire,2013-05-05 19:25:00,
2013-05-05 15:30:00,53.2,44.7,30.27,SSW,205,4.8,8.7,72,0.00,n/a,n/a,-99.99,Henriksen +1-Wire,2013-05-05 19:30:00,
2013-05-05 15:35:00,53.2,44.7,30.27,SSW,212,5.6,9.5,72,0.00,n/a,n/a,-99.99,Henriksen +1-Wire,2013-05-05 19:35:00,
2013-05-05 15:40:00,52.8,44.4,30.27,SSW,207,5.5,11.7,72,0.00,n/a,n/a,-99.99,Henriksen +1-Wire,2013-05-05 19:40:00,
2013-05-05 15:45:00,52.7,44.5,30.27,SSW,211,7.3,12.6,73,0.00,n/a,n/a,-99.99,Henriksen +1-Wire,2013-05-05 19:45:00,
2013-05-05 15:50:00,52.9,44.9,30.27,SSW,208,5.5,12.6,73,0.00,n/a,n/a,-99.99,Henriksen +1-Wire,2013-05-05 19:50:00,
2013-05-05 15:55:00,52.8,44.9,30.27,SSW,205,4.6,10.2,74,0.00,n/a,n/a,-99.99,Henriksen +1-Wire,2013-05-05 19:55:00,
2013-05-05 16:00:00,52.6,44.8,30.27,South,189,5.0,7.9,74,0.00,n/a,n/a,-99.99,Henriksen +1-Wire,2013-05-05 20:00:00,
2013-05-05 16:05:00,52.5,44.9,30.27,SSW,195,6.2,9.5,75,0.00,n/a,n/a,-99.99,Henriksen +1-Wire,2013-05-05 20:05:00,
2013-05-05 16:10:00,52.7,45.2,30.27,South,190,5.6,9.5,75,0.00,n/a,n/a,-99.99,Henriksen +1-Wire,2013-05-05 20:10:00,
2013-05-05 16:16:00,52.8,45.4,30.27,SSW,194,6.2,10.8,75,0.00,n/a,n/a,-99.99,Henriksen +1-Wire,2013-05-05 20:16:00,
2013-05-05 16:21:00,52.7,45.4,30.27,SSW,203,5.3,10.8,75,0.00,n/a,n/a,-99.99,Henriksen +1-Wire,2013-05-05 20:21:00,
2013-05-05 16:27:00,52.3,45.0,30.26,SSW,209,4.3,9.4,76,0.00,n/a,n/a,-99.99,Henriksen +1-Wire,2013-05-05 20:27:00,
2013-05-05 16:32:00,52.1,44.9,30.26,SSW,202,4.9,8.7,76,0.00,n/a,n/a,-99.99,Henriksen +1-Wire,2013-05-05 20:32:00,
2013-05-05 16:38:00,51.9,44.9,30.26,SSW,208,4.6,8.9,76,0.00,n/a,n/a,-99.99,Henriksen +1-Wire,2013-05-05 20:38:00,
2013-05-05 16:43:00,51.7,44.8,30.26,SW,217,5.0,8.9,77,0.00,n/a,n/a,-99.99,Henriksen +1-Wire,2013-05-05 20:43:00,
2013-05-05 16:48:00,51.5,44.7,30.26,SSW,205,4.6,7.7,77,0.00,n/a,n/a,-99.99,Henriksen +1-Wire,2013-05-05 20:48:00,
2013-05-05 16:53:00,51.5,45.0,30.26,SSW,210,4.8,8.3,78,0.00,n/a,n/a,-99.99,Henriksen +1-Wire,2013-05-05 20:53:00,
2013-05-05 16:58:00,51.3,44.9,30.26,SW,214,5.0,9.5,78,0.00,n/a,n/a,-99.99,Henriksen +1-Wire,2013-05-05 20:58:00,
2013-05-05 17:03:00,51.1,44.9,30.26,SSW,205,4.2,9.5,79,0.00,n/a,n/a,-99.99,Henriksen +1-Wire,2013-05-05 21:03:00,
2013-05-05 17:08:00,51.0,44.8,30.26,SSW,208,4.9,8.7,79,0.00,n/a,n/a,-99.99,Henriksen +1-Wire,2013-05-05 21:08:00,
2013-05-05 17:13:00,50.7,44.7,30.26,SSW,209,4.4,8.7,79,0.00,n/a,n/a,-99.99,Henriksen +1-Wire,2013-05-05 21:13:00,
2013-05-05 17:18:00,50.6,44.6,30.26,SSW,209,4.6,8.3,79,0.00,n/a,n/a,-99.99,Henriksen +1-Wire,2013-05-05 21:18:00,
2013-05-05 17:23:00,50.5,44.4,30.26,SSW,209,4.0,9.4,79,0.00,n/a,n/a,-99.99,Henriksen +1-Wire,2013-05-05 21:23:00,
2013-05-05 17:28:00,50.4,44.2,30.26,SSW,206,4.7,9.4,79,0.00,n/a,n/a,-99.99,Henriksen +1-Wire,2013-05-05 21:28:00,
2013-05-05 17:33:00,50.2,44.0,30.25,SSW,201,4.2,8.0,79,0.00,n/a,n/a,-99.99,Henriksen +1-Wire,2013-05-05 21:33:00,
2013-05-05 17:39:00,50.1,44.1,30.26,SSW,203,4.4,8.8,79,0.00,n/a,n/a,-99.99,Henriksen +1-Wire,2013-05-05 21:39:00,
2013-05-05 17:45:00,50.0,44.0,30.26,SSW,202,4.4,9.2,79,0.00,n/a,n/a,-99.99,Henriksen +1-Wire,2013-05-05 21:45:00,
2013-05-05 17:50:00,49.9,43.9,30.25,SSW,199,4.0,9.2,79,0.00,n/a,n/a,-99.99,Henriksen +1-Wire,2013-05-05 21:50:00,
2013-05-05 17:55:00,49.8,43.8,30.25,SSW,204,4.4,8.7,79,0.00,n/a,n/a,-99.99,Henriksen +1-Wire,2013-05-05 21:55:00,
2013-05-05 18:00:00,49.7,43.7,30.25,SW,217,3.5,9.5,79,0.00,n/a,n/a,-99.99,Henriksen +1-Wire,2013-05-05 22:00:00,
2013-05-05 18:06:00,49.5,43.5,30.25,SSW,208,4.1,7.1,79,0.00,n/a,n/a,-99.99,Henriksen +1-Wire,2013-05-05 22:06:00,
2013-05-05 18:11:00,49.4,43.3,30.25,SSW,205,3.9,7.1,79,0.00,n/a,n/a,-99.99,Henriksen +1-Wire,2013-05-05 22:11:00,
2013-05-05 18:16:00,49.3,43.3,30.25,SSW,205,3.7,7.1,79,0.00,n/a,n/a,-99.99,Henriksen +1-Wire,2013-05-05 22:16:00,
2013-05-05 18:21:00,49.1,43.2,30.25,SSW,201,3.3,7.1,79,0.00,n/a,n/a,-99.99,Henriksen +1-Wire,2013-05-05 22:21:00,
2013-05-05 18:26:00,49.0,43.2,30.25,SSW,198,2.4,7.2,80,0.00,n/a,n/a,-99.99,Henriksen +1-Wire,2013-05-05 22:26:00,
2013-05-05 18:31:00,48.9,43.3,30.25,SSW,199,3.6,7.2,80,0.00,n/a,n/a,-99.99,Henriksen +1-Wire,2013-05-05 22:31:00,
2013-05-05 18:36:00,48.8,43.3,30.25,SSW,203,4.1,7.9,81,0.00,n/a,n/a,-99.99,Henriksen +1-Wire,2013-05-05 22:36:00,
2013-05-05 18:41:00,48.7,43.3,30.25,SSW,195,4.3,7.9,81,0.00,n/a,n/a,-99.99,Henriksen +1-Wire,2013-05-05 22:41:00,
2013-05-05 18:46:00,48.6,43.3,30.25,SSW,197,2.9,7.1,81,0.00,n/a,n/a,-99.99,Henriksen +1-Wire,2013-05-05 22:46:00,
2013-05-05 18:51:00,48.5,43.2,30.25,SSW,197,3.7,8.7,81,0.00,n/a,n/a,-99.99,Henriksen +1-Wire,2013-05-05 22:51:00,
2013-05-05 18:56:00,48.4,43.2,30.25,SSW,205,4.5,8.7,82,0.00,n/a,n/a,-99.99,Henriksen +1-Wire,2013-05-05 22:56:00,
2013-05-05 19:01:00,48.3,43.2,30.25,SSW,206,3.6,7.8,82,0.00,n/a,n/a,-99.99,Henriksen +1-Wire,2013-05-05 23:01:00,
2013-05-05 19:07:00,48.2,43.2,30.25,SSW,211,3.6,7.1,82,0.00,n/a,n/a,-99.99,Henriksen +1-Wire,2013-05-05 23:07:00,
2013-05-05 19:13:00,48.1,43.3,30.25,SW,215,3.8,6.9,83,0.00,n/a,n/a,-99.99,Henriksen +1-Wire,2013-05-05 23:13:00,
2013-05-05 19:18:00,48.0,43.4,30.26,SSW,212,2.7,6.3,84,0.00,n/a,n/a,-99.99,Henriksen +1-Wire,2013-05-05 23:18:00,
2013-05-05 19:23:00,47.9,43.5,30.26,SSW,210,3.2,7.9,84,0.00,n/a,n/a,-99.99,Henriksen +1-Wire,2013-05-05 23:23:00,
2013-05-05 19:29:00,47.7,43.6,30.25,SSW,209,3.2,6.3,85,0.00,n/a,n/a,-99.99,Henriksen +1-Wire,2013-05-05 23:29:00,
2013-05-05 19:35:00,47.5,43.8,30.25,SSW,211,3.5,6.3,86,0.00,n/a,n/a,-99.99,Henriksen +1-Wire,2013-05-05 23:35:00,
2013-05-05 19:41:00,47.4,43.9,30.25,SSW,211,3.0,6.8,87,0.00,n/a,n/a,-99.99,Henriksen +1-Wire,2013-05-05 23:41:00,
2013-05-05 19:46:00,47.3,44.0,30.25,SSW,212,3.2,7.1,88,0.00,n/a,n/a,-99.99,Henriksen +1-Wire,2013-05-05 23:46:00,
2013-05-05 19:51:00,47.2,44.1,30.25,SW,219,4.0,7.1,88,0.00,n/a,n/a,-99.99,Henriksen +1-Wire,2013-05-05 23:51:00,
2013-05-05 19:56:00,47.2,44.1,30.25,SW,219,3.1,7.1,89,0.00,n/a,n/a,-99.99,Henriksen +1-Wire,2013-05-05 23:56:00,
2013-05-05 20:01:00,47.1,44.2,30.25,SW,219,3.8,7.1,89,0.00,n/a,n/a,-99.99,Henriksen +1-Wire,2013-05-06 00:01:00,
2013-05-05 20:06:00,47.1,44.2,30.25,SW,219,3.9,8.5,89,0.00,n/a,n/a,-99.99,Henriksen +1-Wire,2013-05-06 00:06:00,
2013-05-05 20:11:00,47.1,44.2,30.25,SW,216,4.4,8.5,89,0.00,n/a,n/a,-99.99,Henriksen +1-Wire,2013-05-06 00:11:00,
2013-05-05 20:16:00,47.0,44.0,30.25,SW,217,4.7,9.5,89,0.00,n/a,n/a,-99.99,Henriksen +1-Wire,2013-05-06 00:16:00,
2013-05-05 20:21:00,47.0,43.9,30.25,SW,214,4.5,9.5,88,0.00,n/a,n/a,-99.99,Henriksen +1-Wire,2013-05-06 00:21:00,
2013-05-05 20:26:00,47.0,43.9,30.25,SW,215,3.8,8.1,88,0.00,n/a,n/a,-99.99,Henriksen +1-Wire,2013-05-06 00:26:00,
2013-05-05 20:31:00,47.0,43.9,30.25,SW,216,4.3,6.6,88,0.00,n/a,n/a,-99.99,Henriksen +1-Wire,2013-05-06 00:31:00,
2013-05-05 20:36:00,47.0,43.9,30.25,SSW,213,3.9,7.1,88,0.00,n/a,n/a,-99.99,Henriksen +1-Wire,2013-05-06 00:36:00,
2013-05-05 20:41:00,47.0,43.9,30.25,SW,216,3.2,7.5,88,0.00,n/a,n/a,-99.99,Henriksen +1-Wire,2013-05-06 00:41:00,
2013-05-05 20:46:00,46.9,43.9,30.25,SW,216,2.9,7.5,89,0.00,n/a,n/a,-99.99,Henriksen +1-Wire,2013-05-06 00:46:00,
2013-05-05 20:51:00,46.9,43.9,30.25,SW,214,3.3,6.3,89,0.00,n/a,n/a,-99.99,Henriksen +1-Wire,2013-05-06 00:51:00,
2013-05-05 20:57:00,46.8,44.0,30.25,SW,217,3.6,7.1,89,0.00,n/a,n/a,-99.99,Henriksen +1-Wire,2013-05-06 00:57:00,
2013-05-05 21:02:00,46.8,44.0,30.26,SW,215,3.4,7.1,89,0.00,n/a,n/a,-99.99,Henriksen +1-Wire,2013-05-06 01:02:00,
2013-05-05 21:07:00,46.8,44.0,30.26,SW,215,3.2,6.7,90,0.00,n/a,n/a,-99.99,Henriksen +1-Wire,2013-05-06 01:07:00,
2013-05-05 21:12:00,46.7,44.0,30.26,SSW,213,3.0,6.7,90,0.00,n/a,n/a,-99.99,Henriksen +1-Wire,2013-05-06 01:12:00,
2013-05-05 21:18:00,46.7,44.0,30.26,SW,219,3.5,5.6,90,0.00,n/a,n/a,-99.99,Henriksen +1-Wire,2013-05-06 01:18:00,
2013-05-05 21:23:00,46.7,44.0,30.26,SW,219,3.8,5.6,90,0.00,n/a,n/a,-99.99,Henriksen +1-Wire,2013-05-06 01:23:00,
2013-05-05 21:28:00,46.7,44.0,30.26,SW,217,3.8,6.2,90,0.00,n/a,n/a,-99.99,Henriksen +1-Wire,2013-05-06 01:28:00,
2013-05-05 21:33:00,46.7,44.0,30.26,SW,221,3.4,6.3,90,0.00,n/a,n/a,-99.99,Henriksen +1-Wire,2013-05-06 01:33:00,
2013-05-05 21:38:00,46.7,44.0,30.26,SW,222,3.5,7.1,90,0.00,n/a,n/a,-99.99,Henriksen +1-Wire,2013-05-06 01:38:00,
2013-05-05 21:43:00,46.7,44.0,30.26,SW,226,3.0,7.1,90,0.00,n/a,n/a,-99.99,Henriksen +1-Wire,2013-05-06 01:43:00,
2013-05-05 21:48:00,46.6,43.9,30.26,SW,225,3.3,6.3,90,0.00,n/a,n/a,-99.99,Henriksen +1-Wire,2013-05-06 01:48:00,
2013-05-05 21:54:00,46.5,43.8,30.26,SW,228,2.2,6.3,90,0.00,n/a,n/a,-99.99,Henriksen +1-Wire,2013-05-06 01:54:00,
2013-05-05 21:59:00,46.4,43.7,30.26,SW,222,3.1,6.3,90,0.00,n/a,n/a,-99.99,Henriksen +1-Wire,2013-05-06 01:59:00,
2013-05-05 22:05:00,46.3,43.8,30.26,SW,223,2.5,6.3,90,0.00,n/a,n/a,-99.99,Henriksen +1-Wire,2013-05-06 02:05:00,
2013-05-05 22:11:00,46.3,43.9,30.25,SW,233,2.6,4.4,91,0.00,n/a,n/a,-99.99,Henriksen +1-Wire,2013-05-06 02:11:00,
2013-05-05 22:17:00,46.2,44.0,30.26,SW,224,2.5,4.7,91,0.00,n/a,n/a,-99.99,Henriksen +1-Wire,2013-05-06 02:17:00,
2013-05-05 22:22:00,46.1,43.9,30.26,SW,222,1.9,4.7,91,0.00,n/a,n/a,-99.99,Henriksen +1-Wire,2013-05-06 02:22:00,
2013-05-05 22:27:00,46.0,43.8,30.26,SW,225,2.7,5.6,91,0.00,n/a,n/a,-99.99,Henriksen +1-Wire,2013-05-06 02:27:00,
2013-05-05 22:32:00,45.9,43.7,30.26,SW,225,2.7,5.6,91,0.00,n/a,n/a,-99.99,Henriksen +1-Wire,2013-05-06 02:32:00,
2013-05-05 22:38:00,45.8,43.4,30.25,SW,224,2.3,4.7,91,0.00,n/a,n/a,-99.99,Henriksen +1-Wire,2013-05-06 02:38:00,
2013-05-05 22:43:00,45.8,43.3,30.25,SW,227,2.7,4.7,90,0.00,n/a,n/a,-99.99,Henriksen +1-Wire,2013-05-06 02:43:00,
2013-05-05 22:48:00,45.7,43.0,30.25,SW,224,1.7,4.7,89,0.00,n/a,n/a,-99.99,Henriksen +1-Wire,2013-05-06 02:48:00,
2013-05-05 22:54:00,45.6,42.7,30.25,SW,216,1.6,4.0,89,0.00,n/a,n/a,-99.99,Henriksen +1-Wire,2013-05-06 02:54:00,
2013-05-05 22:59:00,45.5,42.5,30.25,SW,219,2.1,4.8,89,0.00,n/a,n/a,-99.99,Henriksen +1-Wire,2013-05-06 02:59:00,
2013-05-05 23:05:00,45.5,42.5,30.25,SW,223,1.5,4.8,89,0.00,n/a,n/a,-99.99,Henriksen +1-Wire,2013-05-06 03:05:00,
2013-05-05 23:10:00,45.4,42.4,30.25,SW,227,2.1,3.9,89,0.00,n/a,n/a,-99.99,Henriksen +1-Wire,2013-05-06 03:10:00,
2013-05-05 23:16:00,45.2,42.4,30.25,SW,217,1.1,3.9,89,0.00,n/a,n/a,-99.99,Henriksen +1-Wire,2013-05-06 03:16:00,
2013-05-05 23:22:00,45.0,42.4,30.25,SW,217,0.2,2.4,90,0.00,n/a,n/a,-99.99,Henriksen +1-Wire,2013-05-06 03:22:00,
2013-05-05 23:27:00,44.8,42.4,30.25,SSW,207,0.0,1.6,91,0.00,n/a,n/a,-99.99,Henriksen +1-Wire,2013-05-06 03:27:00,
2013-05-05 23:32:00,44.5,42.3,30.25,SSW,198,0.0,0.8,91,0.00,n/a,n/a,-99.99,Henriksen +1-Wire,2013-05-06 03:32:00,
2013-05-05 23:37:00,44.3,42.4,30.25,SSW,195,0.0,0.0,92,0.00,n/a,n/a,-99.99,Henriksen +1-Wire,2013-05-06 03:37:00,
2013-05-05 23:42:00,44.1,42.3,30.25,SSE,166,0.0,0.4,93,0.00,n/a,n/a,-99.99,Henriksen +1-Wire,2013-05-06 03:42:00,
2013-05-05 23:47:00,43.9,42.4,30.25,SSW,196,0.0,0.4,94,0.00,n/a,n/a,-99.99,Henriksen +1-Wire,2013-05-06 03:47:00,
2013-05-05 23:52:00,43.6,42.4,30.25,SW,215,0.0,0.0,95,0.00,n/a,n/a,-99.99,Henriksen +1-Wire,2013-05-06 03:52:00,
2013-05-05 23:57:00,43.5,42.4,30.25,SSW,212,0.0,0.0,96,0.00,n/a,n/a,-99.99,Henriksen +1-Wire,2013-05-06 03:57:00,